Regional Weather Roundup
Issued by NWS

Home | Current Version | Previous Version | Text Only | Print | Product List | Glossary On
Versions: 1 2 3 4 5 6 7 8 9 10 11 12 13 14 15 16 17 18 19 20 21 22 23 24 25 26 27 28 29 30 31 32 33 34 35 36 37 38 39 40 41 42 43 44 45 46 47 48 49 50
000
ASUS43 KMKX 250820
RWRWI

WISCONSIN REGIONAL WEATHER ROUNDUP
NATIONAL WEATHER SERVICE MILWAUKEE/SULLIVAN WI
300 AM CDT FRI JUL 25 2014

NOTE: "FAIR" INDICATES FEW OR NO CLOUDS BELOW 12,000 FEET WITH NO
SIGNIFICANT WEATHER AND/OR OBSTRUCTIONS TO VISIBILITY.

WIZ001-002-006>008-014>016-023>028-250900-
NORTHWEST WISCONSIN

CITY           SKY/WX    TMP DP  RH WIND       PRES   REMARKS
SUPERIOR ARPT  CLOUDY    57  55  92 NE6       29.87S
ASHLAND        MOCLDY    59  57  93 CALM      29.88F
HAYWARD        MOCLDY    65  59  81 CALM      29.89F
SIREN          CLOUDY    66  59  78 S6        29.88S
RICE LAKE      MOCLDY    64  58  82 SE5       29.91F
LADYSMITH      PTCLDY    64  58  82 SE3       29.93F
EAU CLAIRE     MOCLDY    66  60  81 S8        29.91F
MENOMONIE      CLOUDY    65  61  87 SE5       29.91R
NEW RICHMOND   CLOUDY    66  58  76 S8        29.90R
OSCEOLA        CLOUDY    67  60  78 S7        29.91R
$$

WIZ003>005-009-010-017-018-250900-
NORTH CENTRAL WISCONSIN

CITY           SKY/WX    TMP DP  RH WIND       PRES   REMARKS
WOODRUFF       CLOUDY    62  55  79 S3        29.95F
RHINELANDER    CLOUDY    61  54  77 SW3       29.98F
EAGLE RIVER    CLOUDY    57  55  93 CALM      29.96F
LAND O LAKES   CLOUDY    56  55  96 CALM      29.97F
PHILLIPS       PTCLDY    62  56  81 S5        29.93F
TOMAHAWK       CLOUDY    57  55  90 CALM      29.96F
MEDFORD        MOCLDY    62  58  86 S6        29.94F
MERRILL        CLOUDY    57  56  95 CALM      29.96F
$$

WIZ029-030-035-036-043>047-250900-
CENTRAL WISCONSIN

CITY           SKY/WX    TMP DP  RH WIND       PRES   REMARKS
WAUSAU         CLOUDY    65  58  78 S6        29.95F
MOSINEE        CLOUDY    61  59  94 S7        29.97F
MARSHFIELD     PTCLDY    62  58  86 S8        29.94F
STEVENS POINT  MOCLDY    61  56  83 S6        29.97F
WAUPACA        LGT RAIN  63  55  75 S3        29.99F
WAUTOMA        CLOUDY    61  55  80 S5        29.99F
WISC RAPIDS    PTCLDY    65  58  78 S3        29.97F
CAMP DOUGLAS   PTCLDY    62  60  93 S8        29.97F
$$

WIZ011>013-019>022-031-037>040-048>050-250900-
NORTHEAST WISCONSIN

CITY           SKY/WX    TMP DP  RH WIND       PRES   REMARKS
ANTIGO         CLOUDY    58  56  92 S6        29.98F
STURGEON BAY   MOCLDY    63  43  48 S10       29.98F
GREEN BAY      CLOUDY    60  48  64 S5        29.99F
MANITOWOC      CLOUDY    63  46  54 SW8       30.01F
APPLETON       CLOUDY    61  46  59 SW9       30.00F
CLINTONVILLE   CLOUDY    63  50  63 S5        29.98F
OSHKOSH        MOCLDY    62  47  57 S13       30.00F
$$

WIZ032>034-041-042-053>061-250900-
SOUTHWEST WISCONSIN

CITY           SKY/WX    TMP DP  RH WIND       PRES   REMARKS
LA CROSSE      PTCLDY    67  59  75 SE7       29.94F
SPARTA         MOCLDY    56  54  92 CALM      29.97F
VIROQUA        FAIR      62  60  94 SE6       29.98S
BOSCOBEL       CLEAR     59  57  93 CALM      29.98F
PRAIRIE DU CHI CLEAR     63  57  81 E3        29.97S
PLATTEVILLE    FAIR      60  56  87 SE7       30.01F
$$

WIZ056-057-062-063-064-067-068-250900-
SOUTH CENTRAL WISCONSIN

CITY           SKY/WX    TMP DP  RH WIND       PRES   REMARKS
BARABOO/DELLS  PTCLDY    59  54  82 S6        30.00S
LONE ROCK      PTCLDY    63  57  81 E3        30.00F
WATERTOWN      PTCLDY    56  48  75 S3        30.02F
MADISON        MOCLDY    64  52  64 S12       30.01F
MIDDLETON      FAIR      63  55  74 S3        30.02F
MONROE         CLEAR     59  54  82 S9        30.03F
JANESVILLE     CLEAR     55  48  76 CALM      30.03F
$$

WIZ051-052-058>065-066-070>072-250900-
SOUTHEAST WISCONSIN

CITY           SKY/WX    TMP DP  RH WIND       PRES   REMARKS
MILWAUKEE      PTCLDY    60  45  57 SW7       30.04F
WAUKESHA       CLEAR     55  45  67 S5        30.05F
MILWAUKEE/TIMM PTCLDY    57  43  58 CALM      30.04F
RACINE         MOCLDY    59  49  69 SW6       30.06F
BURLINGTON     PTCLDY    49  47  93 SW5       30.04F
KENOSHA        MOCLDY    57  49  74 SW3       30.05F
FOND DU LAC    MOCLDY    61  46  57 S8        30.01F
SHEBOYGAN      CLOUDY    57  46  66 SW8       30.02F
WEST BEND      MOCLDY    55  43  62 S3        30.03F
JUNEAU         PTCLDY    58  44  60 S7        30.04F
$$

LSZ147-162-250900-
LAKE SUPERIOR

STATION/POSITION TIME  TEMP    WIND        PRES    WAVE
                       AIR SEA DIR/SP/G            HT/PER
                 (UTC) (F)     (DEG/KT/KT) (MB)    (FT/S)
$$

LMZ867-665-643>646-250900-
LAKE MICHIGAN

STATION/POSITION TIME  TEMP    WIND        PRES    WAVE
                       AIR SEA DIR/SP/G            HT/PER
                 (UTC) (F)     (DEG/KT/KT) (MB)    (FT/S)
$$

TC  - TEMPERATURE IN CELSIUS
VSB - VISIBILITY IN STATUTE MILES
WCI - WIND CHILL INDEX
HX  - HEAT INDEX




USA.gov is the U.S. government's official web portal to all federal, state and local government web resources and services.